QPF
0.00 0.00 0.00 0.00 0.00 0.00 0.00 0.00 0.00 0.00 0.00 0.00 0.01 0.00 0.01 0.02 0.02 0.01 0.02 0.02 0.04 0.08 0.08 0.07 0.08 0.08 0.05 0.03 0.04 0.06 0.07 0.11 0.12 0.11 0.09 0.07 0.07 0.08 0.08 0.09 0.09 0.10 0.09 0.09
0.00 0.00 0.00 0.00 0.00 0.00 0.00 0.00 0.00 0.00 0.00 0.00 0.01 0.01 0.01 0.02 0.02 0.02 0.02 0.02 0.03 0.06 0.09 0.07 0.05 0.05 0.03 0.02 0.03 0.04 0.04 0.04 0.05 0.06 0.04 0.04 0.04 0.04 0.05 0.06 0.06 0.09 0.10 0.08
0.00 0.00 0.00 0.00 0.00 0.00 0.00 0.00 0.00 0.00 0.00 0.00 0.00 0.01 0.01 0.02 0.02 0.03 0.03 0.02 0.03 0.04 0.04 0.04 0.02 0.02 0.01 0.02 0.02 0.02 0.02 0.03 0.03 0.03 0.03 0.04 0.03 0.02 0.05 0.09 0.08 0.06 0.07 0.09
0.00 0.00 0.00 0.00 0.00 0.00 0.00 0.00 0.00 0.00 0.00 0.00 0.00 0.00 0.01 0.02 0.02 0.03 0.03 0.04 0.04 0.04 0.03 0.02 0.02 0.02 0.02 0.03 0.03 0.02 0.02 0.02 0.03 0.02 0.02 0.02 0.02 0.01 0.02 0.04 0.05 0.05 0.06 0.06
0.00 0.00 0.00 0.01 0.01 0.01 0.00 0.00 0.00 0.00 0.00 0.00 0.00 0.01 0.02 0.02 0.04 0.04 0.06 0.06 0.06 0.04 0.03 0.02 0.02 0.02 0.02 0.02 0.03 0.03 0.02 0.02 0.02 0.02 0.02 0.01 0.01 0.02 0.04 0.05 0.05 0.03 0.02 0.02
0.00 0.00 0.00 0.00 0.01 0.01 0.01 0.01 0.02 0.01 0.01 0.00 0.01 0.01 0.01 0.02 0.04 0.06 0.08 0.09 0.07 0.04 0.03 0.02 0.02 0.02 0.02 0.02 0.03 0.03 0.02 0.04 0.04 0.04 0.03 0.03 0.04 0.05 0.05 0.05 0.05 0.03 0.02 0.02
0.00 0.00 0.00 0.00 0.00 0.00 0.01 0.01 0.01 0.02 0.01 0.01 0.01 0.01 0.02 0.04 0.08 0.07 0.07 0.08 0.06 0.05 0.04 0.03 0.02 0.02 0.02 0.03 0.03 0.04 0.04 0.05 0.05 0.05 0.05 0.06 0.06 0.06 0.05 0.06 0.05 0.03 0.02 0.03
0.00 0.00 0.00 0.00 0.00 0.01 0.01 0.01 0.01 0.02 0.02 0.02 0.02 0.02 0.03 0.03 0.04 0.03 0.04 0.05 0.05 0.05 0.04 0.03 0.02 0.03 0.03 0.02 0.02 0.03 0.03 0.03 0.04 0.05 0.06 0.08 0.07 0.06 0.07 0.10 0.08 0.06 0.06 0.06
0.01 0.01 0.01 0.01 0.01 0.01 0.01 0.01 0.01 0.01 0.02 0.03 0.03 0.03 0.02 0.02 0.02 0.03 0.03 0.03 0.04 0.04 0.04 0.03 0.03 0.02 0.02 0.02 0.03 0.03 0.04 0.05 0.05 0.06 0.07 0.08 0.06 0.05 0.05 0.05 0.05 0.05 0.04 0.03
0.02 0.03 0.03 0.03 0.02 0.02 0.02 0.02 0.02 0.02 0.03 0.03 0.03 0.03 0.02 0.01 0.02 0.02 0.03 0.04 0.04 0.05 0.04 0.03 0.03 0.02 0.02 0.03 0.04 0.05 0.05 0.04 0.04 0.04 0.05 0.07 0.06 0.05 0.05 0.05 0.05 0.04 0.04 0.03
0.03 0.03 0.04 0.03 0.03 0.03 0.04 0.03 0.03 0.04 0.03 0.03 0.03 0.02 0.02 0.03 0.03 0.04 0.04 0.04 0.03 0.04 0.04 0.04 0.05 0.05 0.04 0.04 0.04 0.04 0.04 0.04 0.05 0.04 0.04 0.04 0.04 0.05 0.06 0.08 0.08 0.07 0.06 0.06
0.03 0.03 0.03 0.04 0.03 0.03 0.05 0.05 0.05 0.05 0.04 0.05 0.05 0.04 0.03 0.03 0.03 0.03 0.04 0.04 0.04 0.04 0.05 0.05 0.06 0.06 0.06 0.06 0.07 0.06 0.05 0.05 0.04 0.03 0.03 0.02 0.03 0.03 0.04 0.04 0.05 0.05 0.04 0.05
0.02 0.03 0.02 0.03 0.04 0.04 0.06 0.06 0.06 0.06 0.05 0.05 0.06 0.06 0.05 0.04 0.03 0.02 0.02 0.02 0.03 0.04 0.04 0.04 0.04 0.05 0.06 0.08 0.11 0.14 0.11 0.07 0.05 0.04 0.03 0.03 0.04 0.04 0.04 0.05 0.05 0.04 0.03 0.02
0.02 0.02 0.03 0.03 0.04 0.07 0.08 0.07 0.06 0.06 0.07 0.07 0.06 0.06 0.05 0.04 0.04 0.03 0.02 0.02 0.03 0.03 0.03 0.03 0.03 0.05 0.07 0.08 0.13 0.14 0.13 0.10 0.06 0.04 0.03 0.03 0.03 0.05 0.06 0.04 0.04 0.04 0.03 0.02
0.03 0.03 0.04 0.06 0.06 0.07 0.10 0.09 0.08 0.07 0.07 0.07 0.06 0.05 0.05 0.04 0.04 0.04 0.03 0.03 0.03 0.03 0.03 0.02 0.02 0.03 0.05 0.05 0.05 0.05 0.06 0.06 0.04 0.02 0.01 0.01 0.01 0.02 0.02 0.02 0.02 0.02 0.02 0.02
0.03 0.03 0.05 0.07 0.09 0.09 0.10 0.10 0.08 0.08 0.08 0.08 0.06 0.06 0.06 0.04 0.03 0.03 0.03 0.03 0.03 0.03 0.02 0.01 0.01 0.01 0.02 0.02 0.02 0.02 0.02 0.01 0.01 0.01 0.01 0.01 0.00 0.01 0.01 0.01 0.02 0.02 0.02 0.02
0.03 0.04 0.05 0.05 0.06 0.09 0.11 0.10 0.09 0.08 0.08 0.08 0.07 0.06 0.06 0.04 0.03 0.03 0.02 0.03 0.03 0.02 0.02 0.02 0.02 0.01 0.01 0.01 0.01 0.01 0.01 0.00 0.00 0.00 0.00 0.00 0.00 0.00 0.00 0.01 0.01 0.02 0.03 0.02
0.02 0.03 0.04 0.04 0.04 0.07 0.09 0.09 0.08 0.08 0.07 0.07 0.07 0.06 0.04 0.03 0.02 0.02 0.01 0.02 0.02 0.02 0.01 0.01 0.01 0.01 0.00 0.00 0.00 0.01 0.01 0.01 0.01 0.00 0.00 0.00 0.01 0.01 0.01 0.01 0.01 0.02 0.02 0.02
0.01 0.02 0.03 0.03 0.05 0.06 0.05 0.06 0.07 0.07 0.07 0.06 0.06 0.05 0.03 0.03 0.02 0.02 0.01 0.01 0.01 0.01 0.01 0.01 0.01 0.01 0.01 0.01 0.01 0.01 0.01 0.01 0.01 0.01 0.01 0.01 0.01 0.01 0.01 0.02 0.02 0.02 0.02 0.01
0.01 0.02 0.03 0.03 0.05 0.05 0.04 0.04 0.04 0.05 0.04 0.04 0.04 0.04 0.03 0.02 0.02 0.03 0.02 0.02 0.01 0.01 0.01 0.01 0.01 0.01 0.01 0.01 0.01 0.01 0.01 0.01 0.01 0.01 0.02 0.02 0.02 0.02 0.02 0.02 0.02 0.02 0.02 0.01
0.02 0.02 0.02 0.03 0.03 0.04 0.04 0.04 0.04 0.04 0.04 0.04 0.04 0.03 0.03 0.02 0.02 0.02 0.03 0.02 0.01 0.01 0.01 0.01 0.01 0.02 0.01 0.02 0.02 0.01 0.01 0.02 0.02 0.03 0.02 0.03 0.02 0.02 0.03 0.02 0.02 0.01 0.01 0.01
0.03 0.03 0.03 0.04 0.03 0.03 0.04 0.04 0.04 0.04 0.05 0.05 0.04 0.03 0.03 0.03 0.03 0.03 0.03 0.02 0.01 0.01 0.01 0.01 0.02 0.03 0.04 0.04 0.04 0.04 0.04 0.03 0.03 0.02 0.03 0.03 0.03 0.03 0.03 0.02 0.02 0.01 0.01 0.00
0.03 0.03 0.04 0.05 0.03 0.03 0.04 0.04 0.04 0.05 0.06 0.06 0.04 0.04 0.04 0.03 0.03 0.03 0.03 0.03 0.02 0.02 0.02 0.02 0.02 0.03 0.03 0.03 0.03 0.04 0.04 0.04 0.04 0.04 0.03 0.03 0.02 0.02 0.02 0.01 0.01 0.01 0.00 0.00
0.04 0.05 0.06 0.05 0.04 0.03 0.03 0.04 0.05 0.05 0.05 0.05 0.04 0.03 0.03 0.04 0.04 0.03 0.03 0.03 0.03 0.02 0.02 0.02 0.02 0.02 0.01 0.01 0.01 0.02 0.02 0.02 0.02 0.02 0.02 0.02 0.01 0.01 0.01 0.01 0.01 0.01 0.01 0.01
0.04 0.05 0.08 0.07 0.04 0.03 0.03 0.03 0.04 0.05 0.05 0.05 0.04 0.03 0.03 0.03 0.05 0.05 0.03 0.02 0.01 0.01 0.01 0.01 0.01 0.01 0.01 0.02 0.02 0.01 0.01 0.01 0.01 0.01 0.01 0.01 0.01 0.01 0.01 0.01 0.01 0.01 0.00 0.00
0.03 0.04 0.06 0.06 0.04 0.03 0.03 0.03 0.03 0.04 0.05 0.05 0.05 0.04 0.03 0.03 0.03 0.03 0.01 0.01 0.01 0.01 0.00 0.00 0.00 0.00 0.00 0.01 0.01 0.01 0.01 0.01 0.00 0.00 0.00 0.00 0.00 0.00 0.00 0.00 0.00 0.00 0.00 0.00
0.03 0.03 0.03 0.04 0.04 0.03 0.03 0.03 0.03 0.04 0.04 0.04 0.04 0.04 0.03 0.03 0.02 0.01 0.01 0.00 0.00 0.00 0.00 0.00 0.01 0.01 0.00 0.00 0.00 0.00 0.00 0.00 0.00 0.00 0.00 0.00 0.00 0.00 0.00 0.00 0.00 0.00 0.00 0.00
MSLP
1012.87 1013.20 1013.58 1014.01 1014.45 1014.83 1015.08 1015.14 1014.95 1014.50 1013.81 1012.91 1011.90 1010.85 1009.86 1009.02 1008.35 1007.90 1007.66 1007.60 1007.68 1007.88 1008.14 1008.46 1008.82 1009.23 1009.69 1010.19 1010.72 1011.26 1011.78 1012.24 1012.62 1012.90 1013.06 1013.14 1013.16 1013.18 1013.24 1013.39 1013.67 1014.08 1014.64 1015.30
1013.03 1013.26 1013.49 1013.71 1013.91 1014.05 1014.10 1014.00 1013.74 1013.30 1012.69 1011.95 1011.13 1010.30 1009.53 1008.86 1008.35 1007.99 1007.80 1007.76 1007.84 1008.02 1008.28 1008.61 1008.99 1009.44 1009.94 1010.48 1011.06 1011.64 1012.18 1012.66 1013.05 1013.33 1013.50 1013.58 1013.60 1013.61 1013.67 1013.81 1014.07 1014.46 1014.99 1015.64
1013.39 1013.51 1013.57 1013.59 1013.56 1013.48 1013.34 1013.09 1012.74 1012.29 1011.73 1011.10 1010.43 1009.77 1009.16 1008.64 1008.23 1007.96 1007.81 1007.79 1007.89 1008.08 1008.36 1008.72 1009.15 1009.65 1010.22 1010.82 1011.45 1012.08 1012.66 1013.17 1013.59 1013.89 1014.08 1014.19 1014.24 1014.27 1014.34 1014.48 1014.73 1015.11 1015.61 1016.22
1013.89 1013.88 1013.78 1013.62 1013.40 1013.13 1012.81 1012.43 1012.01 1011.52 1010.98 1010.41 1009.84 1009.28 1008.78 1008.35 1008.03 1007.81 1007.70 1007.71 1007.84 1008.06 1008.38 1008.79 1009.28 1009.85 1010.48 1011.15 1011.84 1012.51 1013.14 1013.68 1014.14 1014.48 1014.72 1014.88 1014.98 1015.07 1015.18 1015.35 1015.61 1015.97 1016.44 1017.00
1014.41 1014.27 1014.03 1013.72 1013.34 1012.93 1012.48 1012.01 1011.51 1010.99 1010.46 1009.92 1009.39 1008.90 1008.45 1008.08 1007.79 1007.60 1007.53 1007.57 1007.72 1007.99 1008.36 1008.83 1009.39 1010.03 1010.72 1011.45 1012.18 1012.90 1013.56 1014.15 1014.64 1015.04 1015.34 1015.57 1015.75 1015.91 1016.09 1016.31 1016.60 1016.96 1017.40 1017.92
1014.83 1014.58 1014.22 1013.80 1013.32 1012.82 1012.29 1011.76 1011.23 1010.69 1010.15 1009.62 1009.11 1008.64 1008.22 1007.86 1007.59 1007.42 1007.37 1007.44 1007.63 1007.94 1008.37 1008.90 1009.53 1010.22 1010.96 1011.73 1012.50 1013.24 1013.92 1014.54 1015.07 1015.52 1015.90 1016.21 1016.48 1016.74 1017.00 1017.29 1017.62 1018.00 1018.44 1018.91
1015.04 1014.70 1014.27 1013.79 1013.27 1012.73 1012.19 1011.65 1011.12 1010.58 1010.05 1009.53 1009.03 1008.55 1008.13 1007.78 1007.51 1007.35 1007.31 1007.41 1007.64 1008.00 1008.48 1009.06 1009.74 1010.47 1011.25 1012.04 1012.82 1013.56 1014.25 1014.88 1015.44 1015.94 1016.38 1016.77 1017.14 1017.50 1017.85 1018.23 1018.62 1019.04 1019.47 1019.92
1014.99 1014.60 1014.14 1013.66 1013.16 1012.65 1012.15 1011.65 1011.15 1010.65 1010.14 1009.63 1009.13 1008.66 1008.23 1007.87 1007.60 1007.45 1007.43 1007.55 1007.81 1008.22 1008.74 1009.37 1010.08 1010.84 1011.63 1012.42 1013.18 1013.91 1014.59 1015.22 1015.79 1016.32 1016.81 1017.28 1017.73 1018.19 1018.64 1019.10 1019.56 1020.03 1020.48 1020.92
1014.71 1014.30 1013.87 1013.43 1013.00 1012.58 1012.16 1011.74 1011.31 1010.86 1010.40 1009.91 1009.43 1008.96 1008.53 1008.17 1007.91 1007.76 1007.76 1007.90 1008.20 1008.64 1009.20 1009.85 1010.58 1011.35 1012.13 1012.90 1013.64 1014.33 1014.98 1015.59 1016.16 1016.70 1017.23 1017.76 1018.28 1018.82 1019.36 1019.90 1020.43 1020.95 1021.43 1021.89
1014.25 1013.88 1013.51 1013.16 1012.84 1012.53 1012.23 1011.92 1011.59 1011.22 1010.81 1010.37 1009.91 1009.46 1009.04 1008.69 1008.43 1008.30 1008.31 1008.47 1008.80 1009.26 1009.84 1010.51 1011.24 1012.00 1012.76 1013.49 1014.18 1014.84 1015.45 1016.03 1016.58 1017.12 1017.67 1018.24 1018.83 1019.43 1020.04 1020.65 1021.24 1021.81 1022.33 1022.81
1013.75 1013.44 1013.16 1012.93 1012.73 1012.55 1012.38 1012.19 1011.96 1011.68 1011.34 1010.96 1010.54 1010.11 1009.72 1009.38 1009.14 1009.02 1009.05 1009.23 1009.57 1010.04 1010.63 1011.30 1012.02 1012.75 1013.47 1014.17 1014.82 1015.42 1015.99 1016.54 1017.07 1017.61 1018.17 1018.76 1019.39 1020.03 1020.70 1021.36 1022.01 1022.62 1023.18 1023.69
1013.30 1013.07 1012.89 1012.78 1012.70 1012.66 1012.61 1012.53 1012.40 1012.21 1011.95 1011.63 1011.26 1010.87 1010.51 1010.20 1009.98 1009.89 1009.93 1010.12 1010.46 1010.93 1011.51 1012.16 1012.84 1013.54 1014.23 1014.88 1015.49 1016.06 1016.59 1017.11 1017.63 1018.16 1018.72 1019.33 1019.97 1020.65 1021.35 1022.05 1022.74 1023.39 1023.99 1024.52
1012.98 1012.82 1012.73 1012.72 1012.76 1012.82 1012.87 1012.89 1012.85 1012.74 1012.56 1012.30 1011.99 1011.66 1011.34 1011.07 1010.89 1010.81 1010.87 1011.06 1011.39 1011.84 1012.39 1013.01 1013.66 1014.32 1014.96 1015.57 1016.14 1016.68 1017.20 1017.70 1018.21 1018.75 1019.32 1019.93 1020.59 1021.29 1022.01 1022.74 1023.45 1024.13 1024.75 1025.31
1012.79 1012.69 1012.68 1012.74 1012.85 1012.99 1013.12 1013.22 1013.25 1013.22 1013.10 1012.92 1012.68 1012.41 1012.16 1011.94 1011.79 1011.74 1011.80 1011.99 1012.31 1012.73 1013.23 1013.80 1014.40 1015.01 1015.61 1016.19 1016.74 1017.27 1017.78 1018.28 1018.80 1019.34 1019.93 1020.55 1021.23 1021.93 1022.67 1023.41 1024.13 1024.82 1025.46 1026.03
1012.71 1012.65 1012.67 1012.78 1012.93 1013.12 1013.30 1013.45 1013.55 1013.58 1013.54 1013.43 1013.28 1013.09 1012.90 1012.75 1012.65 1012.63 1012.71 1012.89 1013.17 1013.55 1014.00 1014.51 1015.05 1015.61 1016.17 1016.72 1017.26 1017.78 1018.30 1018.82 1019.36 1019.93 1020.53 1021.17 1021.86 1022.57 1023.31 1024.05 1024.77 1025.46 1026.10 1026.66
1012.69 1012.64 1012.68 1012.79 1012.97 1013.17 1013.38 1013.56 1013.71 1013.80 1013.84 1013.82 1013.76 1013.67 1013.57 1013.49 1013.45 1013.47 1013.56 1013.73 1013.98 1014.31 1014.70 1015.14 1015.63 1016.14 1016.66 1017.18 1017.71 1018.24 1018.78 1019.33 1019.90 1020.49 1021.12 1021.78 1022.47 1023.19 1023.92 1024.65 1025.35 1026.03 1026.65 1027.20
1012.70 1012.64 1012.66 1012.77 1012.93 1013.13 1013.35 1013.56 1013.75 1013.91 1014.03 1014.11 1014.15 1014.16 1014.16 1014.17 1014.20 1014.26 1014.36 1014.53 1014.75 1015.03 1015.36 1015.74 1016.16 1016.62 1017.10 1017.61 1018.13 1018.67 1019.23 1019.81 1020.41 1021.03 1021.68 1022.35 1023.05 1023.76 1024.47 1025.19 1025.87 1026.52 1027.10 1027.62
1012.72 1012.63 1012.63 1012.71 1012.85 1013.03 1013.25 1013.49 1013.72 1013.94 1014.14 1014.32 1014.47 1014.59 1014.70 1014.80 1014.90 1015.01 1015.14 1015.30 1015.49 1015.73 1016.01 1016.33 1016.70 1017.10 1017.55 1018.04 1018.56 1019.11 1019.68 1020.28 1020.91 1021.55 1022.22 1022.90 1023.59 1024.29 1024.97 1025.65 1026.30 1026.90 1027.45 1027.93
1012.76 1012.66 1012.62 1012.67 1012.78 1012.95 1013.16 1013.41 1013.68 1013.96 1014.24 1014.51 1014.76 1014.99 1015.21 1015.40 1015.57 1015.73 1015.89 1016.05 1016.23 1016.43 1016.67 1016.94 1017.26 1017.63 1018.04 1018.51 1019.02 1019.58 1020.16 1020.78 1021.41 1022.07 1022.73 1023.41 1024.08 1024.74 1025.40 1026.03 1026.63 1027.18 1027.68 1028.10
1012.87 1012.75 1012.69 1012.71 1012.79 1012.95 1013.16 1013.41 1013.71 1014.04 1014.39 1014.73 1015.07 1015.40 1015.70 1015.96 1016.20 1016.41 1016.60 1016.77 1016.94 1017.12 1017.33 1017.57 1017.85 1018.19 1018.59 1019.03 1019.53 1020.08 1020.66 1021.28 1021.91 1022.56 1023.21 1023.86 1024.51 1025.13 1025.74 1026.31 1026.86 1027.35 1027.79 1028.16
1013.06 1012.93 1012.87 1012.87 1012.94 1013.08 1013.28 1013.54 1013.86 1014.22 1014.61 1015.01 1015.41 1015.80 1016.16 1016.49 1016.78 1017.03 1017.24 1017.42 1017.60 1017.78 1017.97 1018.19 1018.46 1018.77 1019.15 1019.59 1020.07 1020.61 1021.18 1021.78 1022.40 1023.02 1023.64 1024.26 1024.85 1025.43 1025.98 1026.50 1026.98 1027.42 1027.80 1028.11
1013.34 1013.22 1013.16 1013.16 1013.22 1013.35 1013.55 1013.81 1014.14 1014.51 1014.91 1015.34 1015.78 1016.20 1016.59 1016.96 1017.27 1017.55 1017.78 1017.98 1018.16 1018.34 1018.54 1018.76 1019.02 1019.34 1019.70 1020.13 1020.60 1021.12 1021.67 1022.25 1022.83 1023.42 1024.00 1024.56 1025.11 1025.64 1026.13 1026.59 1027.02 1027.39 1027.72 1027.98
1013.65 1013.56 1013.52 1013.53 1013.61 1013.74 1013.93 1014.20 1014.51 1014.88 1015.28 1015.71 1016.15 1016.57 1016.97 1017.34 1017.67 1017.95 1018.20 1018.41 1018.61 1018.80 1019.01 1019.24 1019.52 1019.84 1020.20 1020.62 1021.09 1021.59 1022.11 1022.66 1023.20 1023.74 1024.27 1024.79 1025.28 1025.74 1026.18 1026.59 1026.96 1027.29 1027.56 1027.78
1013.91 1013.88 1013.88 1013.93 1014.02 1014.17 1014.38 1014.63 1014.95 1015.30 1015.68 1016.09 1016.50 1016.91 1017.29 1017.65 1017.97 1018.25 1018.50 1018.72 1018.94 1019.15 1019.38 1019.63 1019.92 1020.26 1020.63 1021.05 1021.50 1021.98 1022.48 1022.98 1023.48 1023.98 1024.45 1024.91 1025.35 1025.76 1026.15 1026.51 1026.83 1027.11 1027.35 1027.54
1014.05 1014.08 1014.14 1014.24 1014.38 1014.57 1014.79 1015.07 1015.37 1015.71 1016.08 1016.46 1016.84 1017.21 1017.56 1017.89 1018.19 1018.46 1018.71 1018.94 1019.17 1019.41 1019.66 1019.94 1020.25 1020.60 1020.98 1021.40 1021.84 1022.30 1022.77 1023.23 1023.69 1024.14 1024.56 1024.97 1025.35 1025.71 1026.06 1026.37 1026.66 1026.91 1027.12 1027.28
1013.98 1014.09 1014.24 1014.41 1014.62 1014.86 1015.13 1015.43 1015.75 1016.09 1016.44 1016.79 1017.15 1017.48 1017.80 1018.10 1018.38 1018.64 1018.88 1019.12 1019.36 1019.62 1019.90 1020.20 1020.54 1020.90 1021.29 1021.71 1022.14 1022.57 1023.01 1023.43 1023.84 1024.24 1024.61 1024.97 1025.31 1025.63 1025.93 1026.20 1026.46 1026.69 1026.88 1027.03
1013.69 1013.89 1014.13 1014.40 1014.69 1015.01 1015.34 1015.69 1016.05 1016.41 1016.77 1017.11 1017.45 1017.76 1018.06 1018.33 1018.59 1018.84 1019.09 1019.33 1019.59 1019.86 1020.16 1020.48 1020.83 1021.20 1021.59 1022.00 1022.41 1022.82 1023.22 1023.60 1023.97 1024.32 1024.65 1024.96 1025.25 1025.53 1025.79 1026.04 1026.27 1026.47 1026.65 1026.79
Thickness
5725 5738 5744 5748 5747 5744 5745 5739 5734 5744 5753 5772 5782 5787 5791 5793 5793 5793 5792 5792 5791 5789 5787 5785 5781 5779 5776 5773 5771 5769 5766 5762 5758 5755 5753 5751 5748 5746 5744 5742 5739 5737 5735 5734
5723 5735 5741 5742 5746 5747 5749 5747 5750 5755 5758 5778 5784 5786 5786 5786 5787 5785 5786 5786 5786 5784 5783 5781 5778 5775 5772 5769 5767 5765 5761 5757 5754 5751 5748 5746 5743 5742 5739 5736 5734 5732 5729 5727
5705 5725 5732 5724 5739 5744 5747 5752 5754 5751 5765 5777 5778 5779 5781 5781 5783 5782 5782 5781 5780 5779 5777 5775 5773 5771 5768 5765 5762 5760 5756 5752 5749 5746 5742 5740 5738 5736 5733 5730 5727 5725 5723 5721
5695 5711 5702 5723 5747 5751 5750 5753 5759 5764 5771 5776 5778 5778 5779 5781 5780 5778 5778 5776 5775 5773 5771 5769 5767 5765 5763 5760 5756 5753 5749 5746 5742 5740 5737 5734 5731 5728 5726 5723 5720 5717 5715 5713
5682 5689 5704 5727 5741 5745 5744 5746 5759 5760 5765 5768 5771 5771 5770 5776 5778 5776 5774 5772 5770 5768 5766 5763 5760 5758 5755 5752 5749 5745 5742 5738 5736 5733 5730 5726 5723 5720 5718 5715 5711 5709 5706 5704
5681 5687 5689 5717 5740 5749 5746 5737 5756 5759 5760 5762 5765 5755 5761 5772 5772 5770 5768 5766 5763 5761 5758 5755 5752 5751 5747 5743 5741 5737 5734 5731 5728 5726 5722 5718 5715 5712 5709 5706 5702 5700 5697 5694
5680 5686 5697 5722 5736 5743 5725 5734 5755 5758 5760 5760 5760 5764 5767 5767 5765 5763 5760 5758 5756 5754 5750 5747 5745 5744 5739 5735 5732 5729 5727 5724 5720 5717 5714 5710 5707 5703 5701 5697 5694 5691 5688 5684
5674 5680 5691 5723 5730 5728 5732 5745 5751 5754 5757 5756 5757 5760 5761 5760 5757 5755 5752 5749 5747 5745 5741 5739 5738 5737 5732 5727 5724 5721 5719 5715 5711 5708 5706 5702 5699 5695 5692 5689 5686 5682 5679 5675
5682 5687 5703 5714 5722 5730 5735 5739 5745 5749 5752 5753 5752 5751 5752 5750 5748 5747 5744 5741 5740 5737 5732 5729 5729 5729 5724 5719 5717 5714 5710 5706 5702 5699 5696 5692 5690 5686 5684 5681 5678 5673 5670 5666
5683 5693 5702 5711 5719 5726 5732 5736 5741 5745 5747 5748 5746 5746 5744 5743 5740 5737 5735 5733 5731 5728 5724 5720 5719 5719 5716 5713 5709 5706 5701 5697 5693 5690 5686 5682 5680 5677 5674 5671 5668 5665 5661 5657
5678 5688 5697 5707 5713 5720 5726 5732 5735 5737 5740 5741 5740 5737 5736 5734 5732 5729 5726 5724 5722 5720 5717 5713 5711 5709 5706 5704 5701 5697 5692 5688 5684 5680 5676 5672 5668 5665 5663 5660 5659 5656 5652 5649
5673 5685 5689 5696 5706 5714 5718 5721 5725 5728 5728 5731 5731 5729 5727 5724 5723 5721 5718 5716 5713 5711 5708 5706 5703 5700 5696 5694 5693 5689 5683 5678 5674 5670 5667 5664 5660 5655 5651 5649 5647 5645 5642 5639
5677 5684 5688 5693 5700 5706 5710 5713 5717 5719 5720 5720 5720 5720 5718 5715 5713 5712 5710 5707 5705 5703 5700 5697 5695 5691 5688 5686 5684 5681 5676 5670 5666 5662 5658 5655 5652 5649 5643 5638 5636 5633 5631 5628
5675 5680 5681 5686 5691 5697 5702 5705 5707 5708 5709 5710 5710 5709 5708 5706 5704 5703 5701 5699 5697 5695 5692 5689 5687 5683 5681 5679 5676 5672 5668 5663 5658 5654 5651 5648 5644 5640 5637 5633 5628 5622 5619 5617
5669 5675 5677 5680 5684 5688 5692 5695 5695 5695 5697 5697 5699 5699 5698 5697 5695 5693 5692 5691 5689 5686 5684 5681 5678 5675 5673 5672 5668 5664 5660 5655 5650 5646 5643 5639 5636 5632 5628 5624 5620 5614 5610 5607
5662 5667 5670 5672 5675 5679 5682 5684 5686 5686 5688 5689 5689 5689 5688 5687 5686 5684 5683 5682 5680 5677 5675 5673 5670 5668 5666 5664 5660 5656 5651 5648 5643 5638 5634 5630 5627 5623 5619 5615 5610 5606 5602 5598
5653 5656 5660 5663 5668 5671 5673 5676 5678 5679 5680 5681 5680 5679 5678 5677 5676 5675 5673 5672 5671 5669 5667 5665 5662 5660 5658 5656 5653 5648 5644 5640 5635 5631 5626 5623 5619 5615 5611 5606 5602 5597 5593 5588
5650 5654 5657 5660 5663 5665 5667 5669 5671 5672 5672 5673 5673 5671 5670 5670 5669 5667 5665 5664 5662 5659 5657 5656 5654 5652 5650 5647 5645 5641 5637 5632 5628 5623 5619 5615 5611 5606 5602 5598 5593 5589 5584 5579
5645 5648 5651 5654 5657 5659 5660 5661 5662 5663 5665 5665 5665 5663 5663 5662 5661 5659 5657 5655 5653 5650 5648 5647 5645 5644 5641 5639 5637 5633 5629 5624 5620 5615 5611 5606 5602 5597 5593 5589 5584 5580 5576 5571
5638 5642 5645 5647 5650 5651 5653 5654 5655 5655 5656 5657 5656 5655 5653 5652 5651 5650 5648 5645 5644 5642 5640 5638 5637 5635 5632 5630 5628 5624 5621 5617 5612 5607 5603 5599 5594 5589 5585 5581 5576 5572 5568 5563
5631 5634 5637 5639 5641 5643 5646 5647 5648 5648 5648 5648 5648 5647 5645 5643 5642 5640 5638 5635 5633 5632 5631 5630 5628 5626 5624 5621 5618 5615 5612 5608 5604 5599 5595 5591 5586 5582 5578 5573 5569 5564 5560 5555
5623 5626 5629 5632 5633 5635 5638 5640 5641 5641 5640 5640 5640 5638 5636 5634 5632 5630 5628 5627 5625 5624 5623 5621 5620 5618 5616 5613 5610 5606 5603 5599 5595 5591 5587 5583 5579 5574 5570 5565 5560 5556 5551 5546
5617 5620 5623 5625 5627 5628 5629 5631 5632 5633 5632 5631 5631 5630 5629 5627 5626 5624 5620 5617 5617 5616 5615 5613 5611 5609 5607 5604 5601 5597 5594 5590 5587 5582 5578 5574 5570 5566 5562 5557 5553 5548 5544 5539
5612 5614 5616 5618 5620 5620 5621 5621 5623 5623 5623 5622 5622 5622 5621 5619 5615 5614 5613 5610 5609 5608 5606 5603 5601 5599 5598 5595 5591 5588 5585 5582 5578 5574 5570 5566 5562 5558 5553 5549 5545 5540 5536 5532
5605 5607 5609 5610 5611 5611 5612 5613 5613 5613 5613 5612 5612 5612 5612 5611 5610 5606 5604 5602 5600 5599 5597 5594 5592 5590 5589 5586 5582 5579 5576 5573 5570 5566 5562 5558 5554 5550 5546 5542 5538 5534 5529 5525
5599 5601 5602 5603 5604 5604 5605 5606 5606 5605 5605 5603 5602 5602 5602 5601 5600 5598 5596 5594 5592 5590 5588 5586 5584 5581 5580 5577 5574 5571 5568 5565 5562 5558 5555 5551 5547 5543 5539 5535 5531 5527 5523 5518
5593 5594 5595 5596 5596 5597 5598 5599 5599 5599 5598 5597 5595 5594 5593 5592 5591 5590 5588 5586 5584 5582 5580 5577 5576 5573 5571 5569 5566 5563 5560 5557 5554 5551 5547 5543 5540 5536 5532 5528 5524 5520 5516 5512